Location: Home
(42.5358°N, 72.7383°W)
Time: 17:44:09
(UTC-05:00)

A-11 Canister half - Pass Details

Date: 03 December 2021
Orbit: 1516 x 1684 km, 47.2° (Epoch: 18 January)

Event Time Altitude Azimuth Distance (km) Brightness Sun altitude
Rises 12:43:07 0° 295° (WNW) 4,894 11.5 23.7°
Reaches altitude 10° 12:46:15 10° 294° (WNW) 3,920 11.1 23.5°
Maximum altitude 12:56:16 71° 213° (SSW) 1,764 10.1 23.0°
Drops below altitude 10° 13:06:20 10° 132° (SE) 3,932 11.5 22.3°
Sets 13:09:29 0° 130° (SE) 4,909 11.9 22.1°
